Zurück zum Katalog

FREGAT R/B

AktivHEO
NORAD 43688·ROCKET BODY·🇷🇺 Russia

Gestartet Nov 3, 2018 von Plesetsk Cosmodrome

Loading…

Nächste Überflüge (nächste 24 Stunden)

TLE

AktuellSource: Space-Track

Epoche: Sep 13, 2026, 12:12 UTC

1 43688U 18086B   26256.50881517  .00000016  00000-0  00000-0 0  9995
2 43688  64.2169 193.8094 0063434 130.5487 229.9986  2.08703164 59663

Verfolge FREGAT R/B in Echtzeit mit AllMySat

Download on the App Store